Regional Weather Roundup
Issued by NWS

Home | Current Version | Previous Version | Graphics & Text | Print | Product List | Glossary On
Versions: 1 2 3 4 5 6 7 8 9 10 11 12 13 14 15 16 17 18 19 20 21 22 23 24 25 26 27 28 29 30 31 32 33 34 35 36 37 38 39 40 41 42 43 44 45 46 47 48 49 50
824
ASUS43 KDMX 272101
RWRIA

WEATHER ROUNDUP FOR IOWA
NATIONAL WEATHER SERVICE DES MOINES IA
400 PM CDT MON MAR 27 2017

NOTE: "FAIR" INDICATES FEW OR NO CLOUDS BELOW 12,000 FEET WITH NO
SIGNIFICANT WEATHER AND/OR OBSTRUCTIONS TO VISIBILITY.

* - THESE STATIONS ARE NOT NWS STATIONS...THUS NOT UNDER NWS
QUALITY CONTROL.  THEY ALSO DO NOT REPORT WEATHER SUCH
AS PRECIPITATION OR FOG.

IAZ001>003-012>014-020>022-031>034-043>046-272200-
   NORTHWEST IOWA

CITY           SKY/WX    TMP DP  RH WIND       PRES   REMARKS
CARROLL *      CLOUDY    50  43  76 N10       29.95F
CHEROKEE *     CLOUDY    48  40  75 NE7       29.97S
DENISON *      CLOUDY    50  39  66 N8        29.96F
LE MARS *      CLOUDY    54  41  62 E7        29.96F
ORANGE CITY *  PTSUNNY   52  41  66 E6        29.96S
SHELDON *      CLOUDY    50  39  66 E9        29.95S
SIOUX CITY     MOSUNNY   56  40  55 VRB7      29.94F
SPENCER        CLOUDY    50  38  63 VRB3      29.96F
STORM LAKE *     N/A     46  39  76 NE6       29.96F
$$

IAZ055>058-069>071-079>083-090>094-272200-
   SOUTHWEST IOWA

CITY           SKY/WX    TMP DP  RH WIND       PRES   REMARKS
ATLANTIC *     CLOUDY    52  43  71 NE10G16   29.93F
AUDUBON *      CLOUDY    50  43  76 N9        29.95F
CLARINDA *     CLOUDY    50  45  81 N8        29.96F
COUNCIL BLFS *   N/A     48  43  81 NE9       29.95F
CRESTON *      CLOUDY    48  43  81 N9        29.95F
HARLAN  *      CLOUDY    50  43  76 N9        29.98F
LAMONI         CLOUDY    50  44  80 N8        29.93S
RED OAK *      CLOUDY    50  41  71 NE9       29.94F
SHENANDOAH *   CLOUDY    50  43  76 N9        29.95F
$$

IAZ047>049-059>061-072>074-084-272200-
   CENTRAL IOWA

CITY           SKY/WX    TMP DP  RH WIND       PRES   REMARKS
AMES           CLOUDY    50  43  77 N9        29.95S
ANKENY *       CLOUDY    50  43  76 NW5       29.96S
BOONE *        CLOUDY    48  41  76 N7        29.94S
CHARITON *     CLOUDY    46  45  93 N9        29.93S FOG
DES MOINES     CLOUDY    51  42  71 N6        29.95S
GRINNELL*      CLOUDY    47  43  87 NW9       29.95R
MARSHALLTOWN   CLOUDY    48  43  82 N6        29.94S
NEWTON *       CLOUDY    48  43  81 N8        29.93S
PELLA *        CLOUDY    48  44  87 N9        29.95R
PERRY *        CLOUDY    48  42  78 N8        29.96S
$$

IAZ004>006-015-016-023>025-035-036-272200-
   NORTH CENTRAL IOWA

CITY           SKY/WX    TMP DP  RH WIND       PRES   REMARKS
ALGONA *       CLOUDY    48  41  76 NE9       29.96F
CLARION *      CLOUDY    48  45  87 N8        29.95S
ESTHERVILLE    CLOUDY    49  40  71 NE8       29.96S
FORT DODGE *   CLOUDY    48  39  71 N8        29.96F
MASON CITY     CLOUDY    47  39  74 N7        29.96S
FOREST CITY *  CLOUDY    46  39  76 N7        29.95F
WEBSTER CITY * CLOUDY    46  41  81 N7        29.94R
IOWA FALLS *   CLOUDY    49  42  76 NW3       29.94F
$$

IAZ007>011-017>019-026>030-037>042-050>054-066-272200-
   NORTHEAST IOWA

CITY           SKY/WX    TMP DP  RH WIND       PRES   REMARKS
CEDAR RAPIDS   CLOUDY    50  46  86 N8        29.91F
CHARLES CITY * CLOUDY    48  45  87 N6        29.95S
CLINTON *      CLOUDY    51  46  83 NE5       29.91F
DECORAH *      CLOUDY    46  43  87 NW8       29.93S
DUBUQUE        CLOUDY    49  44  83 N6        29.92S
MONTICELLO *   CLOUDY    50  45  81 N3        29.92S
OELWEIN *      CLOUDY    50  45  81 CALM      29.93S
WATERLOO       CLOUDY    51  41  68 VRB5      29.93F
$$

IAZ064-065-067-068-078-272200-
   EAST CENTRAL IOWA

CITY           SKY/WX    TMP DP  RH WIND       PRES   REMARKS
DAVENPORT      CLOUDY    52  46  80 N6        29.91S
IOWA CITY      CLOUDY    52  45  77 N7        29.93S
MUSCATINE *    CLOUDY    52  46  82 N7        29.91F
QUAD CITIES    CLOUDY    53  46  77 N5        29.90S
$$

IAZ062-063-075>077-085>089-095>099-272200-
   SOUTHEAST IOWA

CITY           SKY/WX    TMP DP  RH WIND       PRES   REMARKS
BURLINGTON     CLOUDY    53  50  89 N13       29.88S
FAIRFIELD *    CLOUDY    50  46  87 N8        29.90S HAZE
FORT MADISON * CLOUDY    54  52  94 N9        29.89S
KEOKUK *       CLOUDY    54  50  87 N7G15     29.87S
OSKALOOSA *    CLOUDY    49  45  86 N10       29.93R
CENTERVILLE *  LGT RAIN  46  46 100 N10       29.94R
OTTUMWA        CLOUDY    50  46  86 N10       29.92S
WASHINGTON *   CLOUDY    52  48  87 N7        29.92S
$$

ABBREVIATIONS USED IN REMARKS
   TC - TEMPERATURES IN CELSIUS
  WCI - WIND CHILL INDEX
   HX - HEAT INDEX
  VSB - VISIBILITY
$$





USA.gov is the U.S. government's official web portal to all federal, state and local government web resources and services.